SCP
-0 -0 0 0 0 0 0 0 0 0 0 0 0 0 0 0 0 0 0 0 0 0 0 0 0 0 0 0 0 0 0 0 0 0 0 0 0 0 0 0 0 0 0 0 0 0 0 0 0 0 0 0 0 0
-0 -0 -0 0 0 0 0 0 0 0 0 0 0 0 0 0 0 0 0 0 0 0 0 0 0 0 0 0 0 0 0 0 0 0 0 0 0 0 0 0 0 0 0 0 0 0 0 0 0 0 0 0 0 0
-0 -0 -0 -0 -0 0 0 0 0 0 0 0 0 0 0 0 0 0 0 0 0 0 0 0 0 0 0 0 0 0 0 0 0 0 0 0 0 0 0 0 0 0 0 0 0 0 0 0 0 0 0 0 0 0
0 0 -0 -0 0 0 0 0 0 0 0 0 0 0 0 0 -0 0 0 0 0 0 0 0 0 0 0 0 0 0 0 0 0 0 0 0 0 0 0 0 0 0 0 0 0 0 0 0 0 0 0 0 0 0
0 0 0 0 0 0 0 0 0 0 0 0 0 0 0 0 0 0 0 0 0 0 0 0 0 0 0 0 0 0 0 0 0 0 0 0 0 0 0 0 0 0 0 0 0 0 0 0 0 0 0 0 0 0
0 0 0 0 0 0 0 0 0 0 0 0 0 0 0 0 0 0 0 0 0 0 0 0 0 0 0 0 0 0 0 0 0 0 0 0 0 0 0 0 0 0 0 0 0 0 0 0 0 0 0 0 0 0
0 0 0 0 0 0 0 0 0 0 0 0 0 0 0 0 0 0 0 0 0 0 0 0 0 0 0 0 0 0 0 0 0 0 0 0 0 0 0 0 0 0 0 0 0 0 0 0 0 0 0 0 0 0
0 0 0 0 0 0 0 0 0 0 0 0 0 0 0 0 0 0 0 0 0 0 0 0 0 0 0 0 0 0 0 0 0 0 0 0 0 0 0 0 0 0 0 0 0 0 0 0 0 0 0 0 0 0
0 0 0 0 0 0 0 0 0 0 0 0 0 0 0 0 0 0 0 0 0 0 0 0 0 0 0 0 0 0 0 0 0 0 0 0 0 0 0 0 0 0 0 0 0 0 0 0 0 0 0 0 0 0
0 0 0 0 0 0 0 0 0 0 0 0 0 0 0 0 0 0 0 0 0 0 0 0 0 0 0 0 0 0 0 0 0 0 0 0 0 0 0 0 0 0 0 0 0 0 0 0 0 0 0 0 0 0
0 0 0 0 0 0 0 0 0 0 0 0 0 0 0 0 0 0 0 0 0 0 0 0 0 0 0 0 0 0 0 0 0 0 0 0 0 0 0 0 0 0 0 0 0 0 0 0 0 0 0 0 0 0
0 0 0 0 0 0 0 0 0 0 0 0 0 0 0 0 0 0 0 0 0 0 0 0 0 0 0 0 0 0 0 0 0 0 0 0 0 0 0 0 0 0 0 0 0 0 0 0 0 0 0 0 0 0
0 0 0 0 0 0 0 0 0 0 0 0 0 0 0 0 0 0 0 0 0 0 0 0 0 0 0 0 0 0 0 0 0 0 0 0 0 0 0 0 0 0 0 0 0 0 0 0 0 0 0 0 0 0
0 0 0 0 0 0 0 0 0 0 0 0 0 0 0 0 0 0 0 0 0 0 0 0 0 0 0 0 0 0 0 0 0 0 0 0 0 0 0 0 0 0 0 0 0 0 0 0 0 0 0 0 0 0
0 0 0 0 0 0 0 -0 0 0 0 0 0 0 0 0 0 0 0 0 0 0 0 0 0 0 0 0 0 0 0 0 0 0 0 0 0 0 0 0 0 0 0 0 0 0 0 0 0 0 0 0 0 0
0 0 -0 0 0 0 0 0 0 0 0 0 0 0 0 0 0 0 0 0 0 0 0 0 0 0 0 0 0 0 0 0 0 0 0 0 0 0 0 0 0 0 0 0 0 0 0 0 0 0 0 0 0 0
0 0 0 0 0 0 0 0 0 0 0 0 0 0 0 0 0 0 0 0 0 0 0 0 0 0 0 0 0 0 0 0 0 0 0 0 0 0 0 0 0 0 0 0 0 0 0 0 0 0 0 0 0 0
0 0 0 0 0 0 0 0 0 0 0 0 0 0 0 0 0 0 0 0 0 0 0 0 0 0 0 0 0 0 0 0 0 0 0 0 0 0 0 0 0 0 0 0 0 0 0 0 0 0 0 0 0 0
0 0 0 0 0 0 0 0 0 0 0 0 0 0 0 0 0 0 0 0 0 0 0 0 0 0 0 0 0 0 0 0 0 0 0 0 0 0 0 0 0 0 0 0 0 0 0 0 0 0 0 0 0 0
-0 -0 0 0 0 0 0 0 0 0 0 0 0 0 0 0 0 0 0 0 0 0 0 0 0 0 0 0 0 0 0 0 0 0 0 0 0 0 0 0 0 0 0 0 0 0 0 0 0 0 0 0 0 0
0 0 0 0 0 0 0 0 0 0 0 0 0 0 0 0 0 0 0 0 0 0 0 0 0 0 0 0 0 0 0 0 0 0 0 0 0 0 0 0 0 0 0 0 0 0 0 0 0 0 0 0 0 0
0 0 0 0 0 0 0 0 0 0 0 0 0 0 0 0 0 0 0 0 0 0 0 0 0 0 0 0 0 0 0 0 0 0 0 0 0 0 0 0 0 0 0 0 0 0 0 0 0 0 0 0 0 0
0 0 0 0 0 0 0 0 0 0 0 0 0 0 0 0 0 0 0 0 0 0 0 0 0 0 0 0 0 0 0 0 0 0 0 0 0 0 0 0 0 0 0 0 0 0 0 0 0 0 0 0 0 0
0 0 0 0 0 0 0 0 0 0 0 0 0 0 0 0 0 0 0 0 0 0 0 0 0 0 0 0 0 0 0 0 0 0 0 0 0 0 0 0 0 0 0 0 0 0 0 0 0 0 0 0 0 0
0 0 0 0 0 0 0 0 0 0 0 0 0 0 0 0 0 0 0 0 0 0 0 0 0 0 0 0 0 0 0 0 0 0 0 0 0 0 0 0 0 0 0 0 0 0 0 0 0 0 0 0 0 0
0 0 0 0 0 0 0 0 0 0 0 0 0 0 0 0 0 0 0 0 0 0 0 0 0 0 0 0 0 0 0 0 0 0 0 0 0 0 0 0 0 0 0 0 0 0 0 0 0 0 0 0 0 0
0 0 0 0 0 0 0 0 0 0 0 0 0 0 0 0 0 0 0 0 0 0 0 0 0 0 0 0 0 0 0 0 0 0 0 0 0 0 0 0 0 0 0 0 0 0 0 0 0 0 0 0 0 0
0 0 0 0 0 0 0 0 0 0 0 0 0 0 0 0 0 0 0 0 -0 -0 -0 -0 0 0 0 0 0 0 0 0 0 0 0 0 0 0 0 0 0 0 0 0 0 0 0 0 0 0 0 0 0 0
-0 0 0 -0 -0 -0 0 0 0 0 0 0 -0 0 -0 -0 -0 -0 -0 -0 -0 -0 -0 0 0 0 0 0 0 0 0 0 0 0 0 0 0 0 0 0 0 0 0 0 0 0 0 0 0 0 0 0 0 0
-0 0 -0 -0 -0 0 0 0 0 0 0 -0 -0 -0 -0 -0 0 0 -0 -0 -0 -0 -0 0 0 0 0 0 0 -0 -0 0 0 0 0 0 0 0 0 0 0 0 0 0 0 0 0 0 0 0 0 0 0 0
0 0 -0 -0 0 0 0 0 0 0 0 0 0 -0 -0 -0 0 0 0 0 0 0 0 -0 -0 0 0 -0 0 0 -0 0 0 0 0 0 0 0 0 0 0 0 0 0 0 0 0 0 0 0 0 0 0 0
0 0 0 0 0 0 0 0 0 0 0 0 0 0 0 0 0 -0 -0 0 0 0 0 0 -0 -0 0 0 -0 0 0 0 0 0 0 0 0 0 0 0 0 0 0 0 0 0 0 0 0 0 0 -0 0 0
0 0 0 0 0 0 0 0 0 0 0 0 0 0 0 0 0 0 0 0 0 0 0 0 0 -0 -0 0 0 -0 -0 0 0 0 0 0 0 0 0 0 0 0 0 0 0 0 0 0 0 0 0 0 0 -0
Wind_Speed_500mb
57 44 42 44 49 45 87 78 92 100 87 82 73 74 64 66 58 59 46 32 39 18 15 33 28 22 23 19 12 27 16 7 6 11 10 9 9 14 8 11 17 20 21 11 8 10 20 24 16 12 5 12 15 15
68 64 30 40 55 64 63 92 110 90 86 70 72 64 67 60 61 53 49 40 37 20 8 26 30 29 28 21 33 58 4 17 25 7 6 7 6 5 7 10 10 11 13 13 21 15 3 43 5 15 14 15 9 4
71 66 68 56 15 27 71 93 97 98 67 66 61 61 51 51 52 49 59 51 45 27 21 31 35 32 34 39 28 22 18 20 19 15 15 5 7 8 11 12 10 9 11 6 6 11 21 21 27 18 13 10 11 14
64 66 63 58 60 54 48 52 44 46 46 40 48 44 42 51 43 50 47 42 43 12 9 12 22 30 51 47 42 44 30 37 20 23 7 5 5 17 5 1 9 5 26 12 9 9 5 12 29 31 24 16 13 13
49 50 50 48 45 38 25 26 30 26 25 25 26 29 38 42 41 47 52 59 53 42 8 5 17 33 26 43 48 55 46 35 25 13 5 7 7 8 3 0 10 18 13 12 12 11 9 9 22 20 18 15 12 10
46 43 37 31 28 26 23 20 11 9 16 20 25 25 29 35 39 35 20 46 45 64 8 6 6 20 33 38 42 53 60 43 33 18 12 14 15 18 8 9 3 34 33 37 9 12 9 13 15 13 11 10 10 10
37 35 33 27 21 17 10 6 5 5 10 14 18 21 21 18 21 18 8 10 41 37 11 4 4 5 21 28 25 32 43 25 24 16 14 12 15 25 6 14 15 19 24 22 20 19 12 15 11 12 10 9 7 8
37 30 25 21 16 12 7 5 4 5 7 5 7 8 8 8 8 8 10 10 19 17 11 4 3 4 17 11 9 20 20 24 18 11 9 9 13 15 11 5 21 23 20 15 13 16 14 15 14 10 7 6 7 8
42 37 29 22 18 12 8 6 6 5 4 6 10 16 13 9 9 11 23 20 21 9 9 6 8 6 19 9 9 12 12 5 12 7 9 19 8 12 3 17 26 23 18 20 18 13 13 13 11 9 9 8 9 8
40 41 38 32 25 21 19 15 12 12 12 16 18 7 8 12 16 19 15 8 14 14 14 7 11 6 16 14 7 11 7 4 8 5 7 8 6 7 8 17 22 23 21 22 24 17 17 16 13 11 9 8 8 7
46 45 44 41 35 34 26 23 19 20 23 21 15 12 13 23 20 14 7 7 5 3 10 5 27 9 17 6 6 12 5 4 7 4 8 5 7 8 22 22 21 19 18 21 19 16 19 18 19 15 12 8 7 8
46 48 47 46 44 38 36 34 32 33 22 13 11 17 21 13 7 6 4 1 7 9 8 6 7 6 10 9 5 7 7 5 8 3 2 5 3 17 28 25 23 21 20 20 19 17 17 15 13 11 9 7 7 8
48 53 52 47 46 46 43 39 34 35 31 31 20 17 12 8 10 14 14 6 4 11 15 12 5 8 7 6 8 3 8 6 5 3 6 2 9 27 28 27 25 22 18 15 12 10 9 9 9 8 7 7 7 10
47 51 51 50 36 40 31 42 40 38 33 21 12 11 11 4 8 8 7 7 8 10 26 19 11 5 5 5 2 6 3 2 4 5 8 3 22 33 29 24 19 17 14 12 11 10 10 10 8 6 7 6 6 8
47 48 50 51 35 22 23 29 29 41 17 15 18 12 9 10 7 7 12 14 11 28 24 14 11 5 3 6 3 7 5 6 7 6 2 4 28 29 24 19 15 13 11 11 10 10 11 11 11 9 9 8 6 6
43 44 48 30 23 18 18 27 31 10 9 5 9 7 10 10 7 12 12 13 17 26 15 8 5 5 2 4 6 8 12 10 4 2 8 27 31 26 19 15 11 10 11 11 11 12 12 13 13 12 10 8 7 9
29 29 25 15 21 17 15 21 20 14 8 8 7 17 7 15 11 9 11 21 33 22 5 6 8 6 5 4 4 5 5 3 7 15 28 29 24 18 13 9 9 10 12 13 14 15 15 15 14 13 11 11 13 16
21 9 13 20 15 17 17 16 6 9 14 12 7 7 15 15 17 13 8 9 12 9 11 6 16 7 8 12 5 5 7 14 20 24 24 22 16 11 9 10 11 12 14 15 17 16 15 15 14 14 16 21 25 29
9 14 9 14 16 14 7 6 6 12 10 11 15 16 17 19 23 15 15 16 13 14 17 6 6 4 4 2 5 15 25 19 22 21 17 12 9 9 9 9 10 12 13 14 15 17 18 19 20 22 27 33 39 42
5 1 12 17 24 11 10 10 10 14 8 8 11 12 12 14 16 21 17 13 14 10 14 7 4 4 7 13 18 23 21 19 16 12 9 9 9 7 6 6 7 10 13 15 18 19 22 25 27 31 36 42 49 56
24 18 10 10 13 16 14 9 14 12 13 14 14 9 11 13 12 11 13 14 15 11 7 9 18 25 23 22 19 16 14 10 7 5 6 3 6 6 4 6 11 15 18 20 23 26 31 35 37 41 50 56 60 67
15 13 10 13 11 11 15 18 13 10 9 11 9 9 11 8 10 14 12 20 11 10 7 16 22 22 20 17 15 14 13 11 9 8 6 4 2 3 7 12 16 17 21 26 33 41 46 49 54 60 66 71 73 75
5 8 11 13 11 14 8 10 7 9 7 4 5 7 8 7 8 9 12 10 9 11 18 20 19 20 19 18 17 16 15 12 10 8 6 4 5 6 9 15 21 27 35 41 47 54 59 61 62 64 66 65 62 61
9 10 13 14 19 4 6 11 9 9 9 7 6 6 5 5 7 9 6 5 8 12 16 19 20 19 16 14 12 9 6 5 4 5 6 9 11 14 20 25 34 40 48 59 59 58 57 55 51 50 48 51 54 58
8 23 14 12 17 10 11 9 9 7 6 5 5 3 3 6 5 6 2 3 8 13 16 18 15 12 11 10 7 4 2 3 6 8 11 17 25 34 41 47 52 54 55 57 52 50 52 51 50 50 51 53 55 55
15 21 12 6 9 8 1 6 4 4 5 5 1 1 2 5 8 1 4 8 14 17 18 15 12 10 8 7 5 5 7 11 17 23 26 33 41 49 57 64 68 66 43 38 44 50 53 53 54 53 53 49 47 48
11 8 12 15 7 8 10 10 8 6 7 5 3 4 6 9 1 3 10 14 17 17 15 12 11 10 8 6 7 12 19 26 33 40 45 48 51 52 49 51 52 48 44 43 44 46 50 51 51 50 50 48 51 54
11 16 7 12 10 14 8 5 6 3 3 4 4 6 9 10 7 9 11 19 18 18 16 14 11 5 5 12 20 26 31 38 46 49 48 40 36 33 29 33 37 39 41 41 41 41 42 45 48 50 57 61 60 58
12 20 8 11 8 13 13 4 2 4 3 3 6 4 4 7 16 22 25 22 21 18 12 3 6 15 24 29 32 37 40 41 41 40 41 44 44 39 36 38 39 40 40 41 38 37 38 40 45 50 53 55 56 52
15 23 7 7 8 5 9 9 7 10 10 9 9 17 21 20 20 22 21 18 12 6 5 14 23 28 29 32 34 28 23 26 27 32 40 46 49 47 44 41 39 37 36 39 43 45 42 43 46 49 52 52 51 51
16 12 5 10 7 8 9 10 13 13 11 14 19 18 17 15 20 18 18 14 10 8 14 27 28 32 37 34 36 39 36 31 32 33 37 41 43 42 40 40 40 41 43 46 49 51 51 50 49 49 49 49 49 49
15 13 5 5 4 6 9 5 4 6 6 6 7 11 13 10 8 12 16 12 11 17 25 36 43 44 40 35 30 31 36 37 36 36 37 40 42 42 41 41 42 46 49 50 48 47 45 45 46 46 48 49 49 49
6 10 10 6 5 4 10 6 5 5 6 5 5 5 4 6 8 15 19 6 10 24 35 41 49 49 41 34 31 27 31 33 33 33 35 38 39 40 40 40 43 46 46 46 45 45 46 45 46 46 46 46 47 46
Wind_Direction_500mb
353 316 270 261 262 264 224 233 238 217 208 211 203 206 200 200 207 216 205 209 203 205 207 204 195 162 157 170 153 148 115 187 125 198 196 193 204 205 170 143 174 170 165 180 167 214 267 154 121 201 90 105 121 115
17 14 354 271 251 249 250 240 222 203 206 200 198 203 208 210 208 205 208 199 204 208 219 217 222 219 215 219 183 168 204 160 168 163 206 125 178 186 152 209 185 208 197 181 197 206 71 183 78 171 151 154 158 192
20 22 22 33 55 256 244 217 194 191 185 190 198 202 206 202 205 226 211 203 192 213 246 245 237 225 226 224 213 167 217 177 188 179 148 150 209 164 177 227 180 226 179 210 174 194 224 204 201 197 209 215 245 268
22 24 23 28 35 52 80 127 143 161 175 189 192 197 204 200 214 213 212 200 203 177 214 231 216 229 236 221 226 226 227 193 176 179 143 156 202 202 210 354 212 132 152 176 259 263 135 208 211 227 239 240 242 243
17 21 27 28 28 40 62 100 138 156 166 177 187 198 205 210 216 216 228 231 229 204 179 192 210 217 210 210 230 227 222 206 175 155 153 210 157 155 125 298 209 189 171 187 243 198 197 149 193 205 207 210 210 222
9 12 17 13 28 43 57 76 101 141 168 189 209 208 221 218 226 222 222 237 220 219 213 192 227 201 200 206 211 218 213 204 195 177 193 212 201 190 209 246 196 204 214 224 217 204 187 171 182 187 200 213 225 235
352 359 3 9 11 8 352 346 16 74 123 126 133 153 154 167 181 187 179 177 196 190 176 176 236 214 192 196 194 199 207 201 193 187 203 178 193 188 238 247 158 186 201 208 209 202 165 193 196 203 216 240 255 276
334 335 339 346 351 346 333 350 332 258 253 241 202 205 205 198 187 181 162 155 169 169 166 178 223 184 176 162 162 185 177 195 200 198 176 180 160 199 236 107 160 170 172 172 175 202 207 177 180 188 207 235 254 271
312 313 315 311 306 296 286 271 240 203 168 153 152 183 188 184 187 165 175 161 187 190 170 178 175 196 164 151 149 157 163 167 186 210 203 173 166 213 181 165 166 171 180 164 166 168 167 172 174 184 195 206 225 251
290 292 294 287 281 273 269 250 229 208 191 197 184 197 187 168 156 175 170 198 197 190 211 208 185 168 166 173 157 137 168 197 189 211 151 220 215 128 128 147 159 162 168 165 150 157 172 179 185 189 194 199 208 236
284 278 271 269 268 261 247 239 235 224 215 202 190 190 165 160 157 171 159 170 192 251 216 206 191 143 183 148 173 204 170 165 203 177 203 193 248 169 167 154 151 154 161 178 198 198 195 194 187 186 190 205 230 250
302 297 287 270 254 243 248 242 217 217 211 202 170 150 156 179 165 136 173 173 214 217 185 164 159 152 143 159 156 167 183 167 223 100 164 245 80 146 163 163 162 167 170 173 175 179 179 181 182 186 194 216 239 267
296 295 293 277 262 248 228 230 230 218 213 195 184 173 179 179 184 187 189 215 234 177 168 153 118 128 126 142 82 143 175 195 120 164 227 271 143 158 162 163 162 163 164 164 167 172 179 195 200 205 204 219 250 280
285 286 289 279 258 247 252 214 217 219 184 188 179 183 188 201 234 188 183 165 154 149 151 136 107 124 121 106 115 136 73 159 121 218 229 129 176 165 167 164 160 157 160 169 181 196 207 212 215 233 248 256 269 286
287 283 283 282 273 221 247 262 241 219 217 184 167 196 178 143 94 129 122 125 121 149 141 115 91 109 43 105 40 115 128 205 221 224 86 168 168 169 163 162 162 168 180 190 199 210 218 232 246 252 253 253 264 288
286 276 277 271 223 233 227 242 240 192 184 159 51 73 102 123 135 139 134 123 129 142 114 86 106 97 120 120 149 199 153 209 176 177 155 145 154 155 159 166 180 198 208 213 221 228 235 235 237 244 247 249 269 290
283 272 280 208 202 210 220 223 208 162 103 80 69 91 69 65 89 106 149 155 155 153 147 140 150 171 104 111 191 207 192 94 146 143 145 150 152 160 176 198 213 220 229 233 235 235 231 231 230 227 241 261 280 292
245 238 158 189 193 197 187 183 140 86 70 60 87 50 75 80 102 108 98 135 151 149 152 147 125 164 180 177 197 136 127 128 134 143 149 158 171 191 214 227 232 240 244 245 242 241 242 235 239 254 269 280 285 294
185 179 146 192 198 180 143 82 85 96 78 83 94 85 85 87 81 95 119 135 123 113 115 68 104 119 122 120 120 145 145 144 156 157 165 185 209 222 228 239 248 255 257 257 257 259 254 255 265 275 283 288 294 301
8 143 197 209 193 154 89 54 61 81 90 96 91 76 80 86 93 75 85 109 108 81 50 49 76 91 98 114 115 132 131 133 149 165 194 218 223 226 245 254 267 280 281 276 269 265 266 271 279 285 289 295 300 303
59 65 82 163 89 72 83 68 63 72 98 94 96 76 78 78 64 58 50 53 61 39 69 64 103 111 114 114 118 124 127 129 135 141 141 129 186 202 216 259 287 291 286 282 284 285 286 288 291 291 293 296 299 300
57 55 60 66 78 74 72 50 81 83 73 89 69 60 55 49 37 20 38 51 58 37 89 123 117 113 113 114 115 113 112 112 115 117 122 128 145 228 270 291 300 303 300 300 300 298 294 292 291 291 292 294 295 297
27 35 57 47 80 56 60 64 81 50 83 65 76 65 34 44 28 40 70 63 79 84 110 116 116 115 115 114 114 112 109 106 98 81 61 32 350 328 323 319 316 314 313 311 307 302 300 298 295 293 293 295 297 297
92 64 40 45 40 78 65 41 58 66 66 43 55 74 33 4 8 62 77 54 93 115 120 125 125 124 118 112 108 105 99 70 39 8 349 338 328 321 318 315 314 311 316 315 310 305 304 303 302 300 299 300 301 302
92 14 27 13 30 49 40 21 8 54 77 24 87 45 320 356 75 60 104 111 138 132 131 131 124 110 102 96 92 82 46 351 333 335 325 322 316 314 313 313 311 312 316 309 305 305 306 307 306 305 304 304 306 307
68 13 39 350 358 70 231 71 47 139 124 66 91 320 7 81 63 26 242 127 130 126 124 120 110 103 99 100 79 22 344 329 319 314 318 310 308 308 309 310 311 313 318 307 304 304 306 308 308 309 308 308 307 308
57 344 33 35 41 84 77 78 87 87 73 106 241 47 64 68 73 260 118 129 133 130 124 117 112 108 93 61 12 334 317 311 308 306 306 305 306 306 302 303 305 309 310 308 305 305 305 306 307 308 310 313 315 314
65 27 73 358 43 39 121 69 56 88 214 122 110 58 118 155 189 138 135 138 137 133 126 120 108 83 326 311 306 304 306 306 306 307 307 309 311 315 315 312 312 313 311 311 310 309 309 311 313 317 317 316 315 315
37 0 14 33 58 49 41 89 143 57 89 38 113 162 127 88 125 135 143 144 140 138 141 161 301 307 309 307 306 306 308 312 316 320 323 327 334 343 335 329 326 324 320 316 315 313 309 308 306 299 295 299 305 310
7 5 35 53 71 19 15 37 62 81 68 72 89 107 101 107 120 133 138 139 132 115 11 344 328 320 324 322 319 322 327 322 327 328 326 327 329 334 334 332 330 328 327 326 325 323 322 318 319 321 319 317 318 319
352 355 54 53 85 48 42 83 85 79 75 79 99 105 113 114 109 115 127 125 105 56 11 3 353 346 339 332 328 327 334 338 335 330 324 322 324 327 328 331 332 332 331 330 330 329 327 324 320 318 319 320 322 322
7 28 55 75 95 67 49 50 59 76 76 73 85 119 130 120 114 144 133 113 67 21 3 0 354 351 343 333 327 321 319 324 326 324 322 323 327 328 325 326 329 330 329 326 325 325 325 324 322 322 321 321 322 323
16 32 55 82 86 80 17 29 62 80 67 71 65 113 104 135 140 168 164 142 18 355 352 346 343 344 340 332 326 323 320 322 322 324 323 322 322 323 322 320 320 320 319 319 322 324 326 326 325 325 323 322 322 324
Wind_Speed_850mb
57 44 42 44 49 45 87 78 92 100 87 82 73 74 64 66 58 59 46 32 39 18 15 33 28 22 23 19 12 27 16 7 6 11 10 9 9 14 8 11 17 20 21 11 8 10 20 24 16 12 5 12 15 15
68 64 30 40 55 64 63 92 110 90 86 70 72 64 67 60 61 53 49 40 37 20 8 26 30 29 28 21 33 58 4 17 25 7 6 7 6 5 7 10 10 11 13 13 21 15 3 43 5 15 14 15 9 4
71 66 68 56 15 27 71 93 97 98 67 66 61 61 51 51 52 49 59 51 45 27 21 31 35 32 34 39 28 22 18 20 19 15 15 5 7 8 11 12 10 9 11 6 6 11 21 21 27 18 13 10 11 14
64 66 63 58 60 54 48 52 44 46 46 40 48 44 42 51 43 50 47 42 43 12 9 12 22 30 51 47 42 44 30 37 20 23 7 5 5 17 5 1 9 5 26 12 9 9 5 12 29 31 24 16 13 13
49 50 50 48 45 38 25 26 30 26 25 25 26 29 38 42 41 47 52 59 53 42 8 5 17 33 26 43 48 55 46 35 25 13 5 7 7 8 3 0 10 18 13 12 12 11 9 9 22 20 18 15 12 10
46 43 37 31 28 26 23 20 11 9 16 20 25 25 29 35 39 35 20 46 45 64 8 6 6 20 33 38 42 53 60 43 33 18 12 14 15 18 8 9 3 34 33 37 9 12 9 13 15 13 11 10 10 10
37 35 33 27 21 17 10 6 5 5 10 14 18 21 21 18 21 18 8 10 41 37 11 4 4 5 21 28 25 32 43 25 24 16 14 12 15 25 6 14 15 19 24 22 20 19 12 15 11 12 10 9 7 8
37 30 25 21 16 12 7 5 4 5 7 5 7 8 8 8 8 8 10 10 19 17 11 4 3 4 17 11 9 20 20 24 18 11 9 9 13 15 11 5 21 23 20 15 13 16 14 15 14 10 7 6 7 8
42 37 29 22 18 12 8 6 6 5 4 6 10 16 13 9 9 11 23 20 21 9 9 6 8 6 19 9 9 12 12 5 12 7 9 19 8 12 3 17 26 23 18 20 18 13 13 13 11 9 9 8 9 8
40 41 38 32 25 21 19 15 12 12 12 16 18 7 8 12 16 19 15 8 14 14 14 7 11 6 16 14 7 11 7 4 8 5 7 8 6 7 8 17 22 23 21 22 24 17 17 16 13 11 9 8 8 7
46 45 44 41 35 34 26 23 19 20 23 21 15 12 13 23 20 14 7 7 5 3 10 5 27 9 17 6 6 12 5 4 7 4 8 5 7 8 22 22 21 19 18 21 19 16 19 18 19 15 12 8 7 8
46 48 47 46 44 38 36 34 32 33 22 13 11 17 21 13 7 6 4 1 7 9 8 6 7 6 10 9 5 7 7 5 8 3 2 5 3 17 28 25 23 21 20 20 19 17 17 15 13 11 9 7 7 8
48 53 52 47 46 46 43 39 34 35 31 31 20 17 12 8 10 14 14 6 4 11 15 12 5 8 7 6 8 3 8 6 5 3 6 2 9 27 28 27 25 22 18 15 12 10 9 9 9 8 7 7 7 10
47 51 51 50 36 40 31 42 40 38 33 21 12 11 11 4 8 8 7 7 8 10 26 19 11 5 5 5 2 6 3 2 4 5 8 3 22 33 29 24 19 17 14 12 11 10 10 10 8 6 7 6 6 8
47 48 50 51 35 22 23 29 29 41 17 15 18 12 9 10 7 7 12 14 11 28 24 14 11 5 3 6 3 7 5 6 7 6 2 4 28 29 24 19 15 13 11 11 10 10 11 11 11 9 9 8 6 6
43 44 48 30 23 18 18 27 31 10 9 5 9 7 10 10 7 12 12 13 17 26 15 8 5 5 2 4 6 8 12 10 4 2 8 27 31 26 19 15 11 10 11 11 11 12 12 13 13 12 10 8 7 9
29 29 25 15 21 17 15 21 20 14 8 8 7 17 7 15 11 9 11 21 33 22 5 6 8 6 5 4 4 5 5 3 7 15 28 29 24 18 13 9 9 10 12 13 14 15 15 15 14 13 11 11 13 16
21 9 13 20 15 17 17 16 6 9 14 12 7 7 15 15 17 13 8 9 12 9 11 6 16 7 8 12 5 5 7 14 20 24 24 22 16 11 9 10 11 12 14 15 17 16 15 15 14 14 16 21 25 29
9 14 9 14 16 14 7 6 6 12 10 11 15 16 17 19 23 15 15 16 13 14 17 6 6 4 4 2 5 15 25 19 22 21 17 12 9 9 9 9 10 12 13 14 15 17 18 19 20 22 27 33 39 42
5 1 12 17 24 11 10 10 10 14 8 8 11 12 12 14 16 21 17 13 14 10 14 7 4 4 7 13 18 23 21 19 16 12 9 9 9 7 6 6 7 10 13 15 18 19 22 25 27 31 36 42 49 56
24 18 10 10 13 16 14 9 14 12 13 14 14 9 11 13 12 11 13 14 15 11 7 9 18 25 23 22 19 16 14 10 7 5 6 3 6 6 4 6 11 15 18 20 23 26 31 35 37 41 50 56 60 67
15 13 10 13 11 11 15 18 13 10 9 11 9 9 11 8 10 14 12 20 11 10 7 16 22 22 20 17 15 14 13 11 9 8 6 4 2 3 7 12 16 17 21 26 33 41 46 49 54 60 66 71 73 75
5 8 11 13 11 14 8 10 7 9 7 4 5 7 8 7 8 9 12 10 9 11 18 20 19 20 19 18 17 16 15 12 10 8 6 4 5 6 9 15 21 27 35 41 47 54 59 61 62 64 66 65 62 61
9 10 13 14 19 4 6 11 9 9 9 7 6 6 5 5 7 9 6 5 8 12 16 19 20 19 16 14 12 9 6 5 4 5 6 9 11 14 20 25 34 40 48 59 59 58 57 55 51 50 48 51 54 58
8 23 14 12 17 10 11 9 9 7 6 5 5 3 3 6 5 6 2 3 8 13 16 18 15 12 11 10 7 4 2 3 6 8 11 17 25 34 41 47 52 54 55 57 52 50 52 51 50 50 51 53 55 55
15 21 12 6 9 8 1 6 4 4 5 5 1 1 2 5 8 1 4 8 14 17 18 15 12 10 8 7 5 5 7 11 17 23 26 33 41 49 57 64 68 66 43 38 44 50 53 53 54 53 53 49 47 48
11 8 12 15 7 8 10 10 8 6 7 5 3 4 6 9 1 3 10 14 17 17 15 12 11 10 8 6 7 12 19 26 33 40 45 48 51 52 49 51 52 48 44 43 44 46 50 51 51 50 50 48 51 54
11 16 7 12 10 14 8 5 6 3 3 4 4 6 9 10 7 9 11 19 18 18 16 14 11 5 5 12 20 26 31 38 46 49 48 40 36 33 29 33 37 39 41 41 41 41 42 45 48 50 57 61 60 58
12 20 8 11 8 13 13 4 2 4 3 3 6 4 4 7 16 22 25 22 21 18 12 3 6 15 24 29 32 37 40 41 41 40 41 44 44 39 36 38 39 40 40 41 38 37 38 40 45 50 53 55 56 52
15 23 7 7 8 5 9 9 7 10 10 9 9 17 21 20 20 22 21 18 12 6 5 14 23 28 29 32 34 28 23 26 27 32 40 46 49 47 44 41 39 37 36 39 43 45 42 43 46 49 52 52 51 51
16 12 5 10 7 8 9 10 13 13 11 14 19 18 17 15 20 18 18 14 10 8 14 27 28 32 37 34 36 39 36 31 32 33 37 41 43 42 40 40 40 41 43 46 49 51 51 50 49 49 49 49 49 49
15 13 5 5 4 6 9 5 4 6 6 6 7 11 13 10 8 12 16 12 11 17 25 36 43 44 40 35 30 31 36 37 36 36 37 40 42 42 41 41 42 46 49 50 48 47 45 45 46 46 48 49 49 49
6 10 10 6 5 4 10 6 5 5 6 5 5 5 4 6 8 15 19 6 10 24 35 41 49 49 41 34 31 27 31 33 33 33 35 38 39 40 40 40 43 46 46 46 45 45 46 45 46 46 46 46 47 46
Wind_Direction_850mb
353 316 270 261 262 264 224 233 238 217 208 211 203 206 200 200 207 216 205 209 203 205 207 204 195 162 157 170 153 148 115 187 125 198 196 193 204 205 170 143 174 170 165 180 167 214 267 154 121 201 90 105 121 115
17 14 354 271 251 249 250 240 222 203 206 200 198 203 208 210 208 205 208 199 204 208 219 217 222 219 215 219 183 168 204 160 168 163 206 125 178 186 152 209 185 208 197 181 197 206 71 183 78 171 151 154 158 192
20 22 22 33 55 256 244 217 194 191 185 190 198 202 206 202 205 226 211 203 192 213 246 245 237 225 226 224 213 167 217 177 188 179 148 150 209 164 177 227 180 226 179 210 174 194 224 204 201 197 209 215 245 268
22 24 23 28 35 52 80 127 143 161 175 189 192 197 204 200 214 213 212 200 203 177 214 231 216 229 236 221 226 226 227 193 176 179 143 156 202 202 210 354 212 132 152 176 259 263 135 208 211 227 239 240 242 243
17 21 27 28 28 40 62 100 138 156 166 177 187 198 205 210 216 216 228 231 229 204 179 192 210 217 210 210 230 227 222 206 175 155 153 210 157 155 125 298 209 189 171 187 243 198 197 149 193 205 207 210 210 222
9 12 17 13 28 43 57 76 101 141 168 189 209 208 221 218 226 222 222 237 220 219 213 192 227 201 200 206 211 218 213 204 195 177 193 212 201 190 209 246 196 204 214 224 217 204 187 171 182 187 200 213 225 235
352 359 3 9 11 8 352 346 16 74 123 126 133 153 154 167 181 187 179 177 196 190 176 176 236 214 192 196 194 199 207 201 193 187 203 178 193 188 238 247 158 186 201 208 209 202 165 193 196 203 216 240 255 276
334 335 339 346 351 346 333 350 332 258 253 241 202 205 205 198 187 181 162 155 169 169 166 178 223 184 176 162 162 185 177 195 200 198 176 180 160 199 236 107 160 170 172 172 175 202 207 177 180 188 207 235 254 271
312 313 315 311 306 296 286 271 240 203 168 153 152 183 188 184 187 165 175 161 187 190 170 178 175 196 164 151 149 157 163 167 186 210 203 173 166 213 181 165 166 171 180 164 166 168 167 172 174 184 195 206 225 251
290 292 294 287 281 273 269 250 229 208 191 197 184 197 187 168 156 175 170 198 197 190 211 208 185 168 166 173 157 137 168 197 189 211 151 220 215 128 128 147 159 162 168 165 150 157 172 179 185 189 194 199 208 236
284 278 271 269 268 261 247 239 235 224 215 202 190 190 165 160 157 171 159 170 192 251 216 206 191 143 183 148 173 204 170 165 203 177 203 193 248 169 167 154 151 154 161 178 198 198 195 194 187 186 190 205 230 250
302 297 287 270 254 243 248 242 217 217 211 202 170 150 156 179 165 136 173 173 214 217 185 164 159 152 143 159 156 167 183 167 223 100 164 245 80 146 163 163 162 167 170 173 175 179 179 181 182 186 194 216 239 267
296 295 293 277 262 248 228 230 230 218 213 195 184 173 179 179 184 187 189 215 234 177 168 153 118 128 126 142 82 143 175 195 120 164 227 271 143 158 162 163 162 163 164 164 167 172 179 195 200 205 204 219 250 280
285 286 289 279 258 247 252 214 217 219 184 188 179 183 188 201 234 188 183 165 154 149 151 136 107 124 121 106 115 136 73 159 121 218 229 129 176 165 167 164 160 157 160 169 181 196 207 212 215 233 248 256 269 286
287 283 283 282 273 221 247 262 241 219 217 184 167 196 178 143 94 129 122 125 121 149 141 115 91 109 43 105 40 115 128 205 221 224 86 168 168 169 163 162 162 168 180 190 199 210 218 232 246 252 253 253 264 288
286 276 277 271 223 233 227 242 240 192 184 159 51 73 102 123 135 139 134 123 129 142 114 86 106 97 120 120 149 199 153 209 176 177 155 145 154 155 159 166 180 198 208 213 221 228 235 235 237 244 247 249 269 290
283 272 280 208 202 210 220 223 208 162 103 80 69 91 69 65 89 106 149 155 155 153 147 140 150 171 104 111 191 207 192 94 146 143 145 150 152 160 176 198 213 220 229 233 235 235 231 231 230 227 241 261 280 292
245 238 158 189 193 197 187 183 140 86 70 60 87 50 75 80 102 108 98 135 151 149 152 147 125 164 180 177 197 136 127 128 134 143 149 158 171 191 214 227 232 240 244 245 242 241 242 235 239 254 269 280 285 294
185 179 146 192 198 180 143 82 85 96 78 83 94 85 85 87 81 95 119 135 123 113 115 68 104 119 122 120 120 145 145 144 156 157 165 185 209 222 228 239 248 255 257 257 257 259 254 255 265 275 283 288 294 301
8 143 197 209 193 154 89 54 61 81 90 96 91 76 80 86 93 75 85 109 108 81 50 49 76 91 98 114 115 132 131 133 149 165 194 218 223 226 245 254 267 280 281 276 269 265 266 271 279 285 289 295 300 303
59 65 82 163 89 72 83 68 63 72 98 94 96 76 78 78 64 58 50 53 61 39 69 64 103 111 114 114 118 124 127 129 135 141 141 129 186 202 216 259 287 291 286 282 284 285 286 288 291 291 293 296 299 300
57 55 60 66 78 74 72 50 81 83 73 89 69 60 55 49 37 20 38 51 58 37 89 123 117 113 113 114 115 113 112 112 115 117 122 128 145 228 270 291 300 303 300 300 300 298 294 292 291 291 292 294 295 297
27 35 57 47 80 56 60 64 81 50 83 65 76 65 34 44 28 40 70 63 79 84 110 116 116 115 115 114 114 112 109 106 98 81 61 32 350 328 323 319 316 314 313 311 307 302 300 298 295 293 293 295 297 297
92 64 40 45 40 78 65 41 58 66 66 43 55 74 33 4 8 62 77 54 93 115 120 125 125 124 118 112 108 105 99 70 39 8 349 338 328 321 318 315 314 311 316 315 310 305 304 303 302 300 299 300 301 302
92 14 27 13 30 49 40 21 8 54 77 24 87 45 320 356 75 60 104 111 138 132 131 131 124 110 102 96 92 82 46 351 333 335 325 322 316 314 313 313 311 312 316 309 305 305 306 307 306 305 304 304 306 307
68 13 39 350 358 70 231 71 47 139 124 66 91 320 7 81 63 26 242 127 130 126 124 120 110 103 99 100 79 22 344 329 319 314 318 310 308 308 309 310 311 313 318 307 304 304 306 308 308 309 308 308 307 308
57 344 33 35 41 84 77 78 87 87 73 106 241 47 64 68 73 260 118 129 133 130 124 117 112 108 93 61 12 334 317 311 308 306 306 305 306 306 302 303 305 309 310 308 305 305 305 306 307 308 310 313 315 314
65 27 73 358 43 39 121 69 56 88 214 122 110 58 118 155 189 138 135 138 137 133 126 120 108 83 326 311 306 304 306 306 306 307 307 309 311 315 315 312 312 313 311 311 310 309 309 311 313 317 317 316 315 315
37 0 14 33 58 49 41 89 143 57 89 38 113 162 127 88 125 135 143 144 140 138 141 161 301 307 309 307 306 306 308 312 316 320 323 327 334 343 335 329 326 324 320 316 315 313 309 308 306 299 295 299 305 310
7 5 35 53 71 19 15 37 62 81 68 72 89 107 101 107 120 133 138 139 132 115 11 344 328 320 324 322 319 322 327 322 327 328 326 327 329 334 334 332 330 328 327 326 325 323 322 318 319 321 319 317 318 319
352 355 54 53 85 48 42 83 85 79 75 79 99 105 113 114 109 115 127 125 105 56 11 3 353 346 339 332 328 327 334 338 335 330 324 322 324 327 328 331 332 332 331 330 330 329 327 324 320 318 319 320 322 322
7 28 55 75 95 67 49 50 59 76 76 73 85 119 130 120 114 144 133 113 67 21 3 0 354 351 343 333 327 321 319 324 326 324 322 323 327 328 325 326 329 330 329 326 325 325 325 324 322 322 321 321 322 323
16 32 55 82 86 80 17 29 62 80 67 71 65 113 104 135 140 168 164 142 18 355 352 346 343 344 340 332 326 323 320 322 322 324 323 322 322 323 322 320 320 320 319 319 322 324 326 326 325 325 323 322 322 324